CHUBUSAT-2

Last updated on Fri Feb 16 2018 09:50:01 GMT+0000 (Coordinated Universal Time)

1 41338U 16012B 18047.19888635 .00000422 00000-0 26328-4 0 9990 2 41338 31.0046 2.3085 0013851 314.8034 45.1474 14.99919642109654

Satellite not in orbit

CHUBUSAT-2